Farmington, NM

9:34 AM MST on January 18, 2017 (GMT -0700)
Four Corners Regional

Weather History for KFMN - February, 2013

Change the Weather History Date:

Tuesday, February 19, 2013

  Actual Average Record
Temperature  
Mean Temperature 36 °F -  
Max Temperature 52 °F 47 °F 64 °F (2011)
Min Temperature 19 °F 24 °F 13 °F (1984)
Degree Days  
Heating Degree Days 30    
Moisture  
Dew Point 7 °F    
Average Humidity 34    
Maximum Humidity 62    
Minimum Humidity 5    
Precipitation  
Precipitation 0.00 in - - ()
Sea Level Pressure  
Sea Level Pressure 29.91 in    
Wind  
Wind Speed 8 mph (ESE)    
Max Wind Speed 15 mph    
Max Gust Speed 25 mph    
Visibility 10 miles    
Events      
Averages and records for this station are not official NWS values.
T = Trace of Precipitation, MM = Missing Value Source: NWS Daily Summary

Daily Weather History Graph

Daily Weather History Graph

Search for Another Location

Airport or City:

Trip Planner

Search our weather history database for the weather conditions in past years. The results will help you decide how hot, cold, wet, or windy it might be!

Date:

Astronomy

Feb. 19, 2013 Rise Set
Actual Time 6:56 AM MST 5:57 PM MST
Civil Twilight 6:29 AM MST 6:24 PM MST
Nautical Twilight 5:59 AM MST 6:54 PM MST
Astronomical Twilight 5:29 AM MST 7:24 PM MST
Moon 12:36 PM MST (2/19) 2:25 AM MST (2/19)
Length of Visible Light 11h 54m
Length of Day
11h 01m
Waxing Gibbous, 68% of the Moon is Illuminated
Feb 19
Waxing Gibbous
Feb 25
Full
Mar 4
Last Quarter
Mar 11
New
Mar 19
First Quarter

Hourly Weather History & Observations

Time (MST) Temp. Windchill Dew Point Humidity Pressure Visibility Wind Dir Wind Speed Gust Speed Precip Events Conditions
12:53 AM 19.9 °F 9.3 °F 9.0 °F 62% 30.14 in 10.0 mi ENE 9.2 mph - N/A   Clear
1:53 AM 19.0 °F 10.0 °F 7.0 °F 59% 30.13 in 10.0 mi East 6.9 mph - N/A   Clear
2:53 AM 19.9 °F 10.1 °F 6.1 °F 55% 30.11 in 10.0 mi East 8.1 mph - N/A   Clear
3:53 AM 19.9 °F 10.1 °F 8.1 °F 60% 30.10 in 10.0 mi East 8.1 mph - N/A   Clear
4:53 AM 19.9 °F 9.3 °F 8.1 °F 60% 30.09 in 10.0 mi East 9.2 mph - N/A   Clear
5:53 AM 19.9 °F 8.6 °F 8.1 °F 60% 30.10 in 10.0 mi East 10.4 mph - N/A   Clear
6:53 AM 19.9 °F 8.6 °F 9.0 °F 62% 30.10 in 10.0 mi ESE 10.4 mph - N/A   Clear
7:53 AM 23.0 °F 15.8 °F 10.0 °F 58% 30.10 in 10.0 mi ESE 5.8 mph - N/A   Clear
8:53 AM 28.0 °F 20.8 °F 10.9 °F 49% 30.07 in 10.0 mi ESE 6.9 mph - N/A   Clear
9:53 AM 36.0 °F 29.0 °F 7.0 °F 30% 30.04 in 10.0 mi East 9.2 mph - N/A   Clear
11:53 AM 46.9 °F - 3.9 °F 17% 29.93 in 10.0 mi ESE 11.5 mph 16.1 mph N/A   Clear
12:53 PM 51.1 °F - 6.1 °F 16% 29.86 in 10.0 mi Variable 4.6 mph - N/A   Clear
1:53 PM 53.1 °F - 3.9 °F 14% 29.80 in 10.0 mi ESE 9.2 mph - N/A   Clear
2:53 PM 53.1 °F - -0.9 °F 11% 29.77 in 10.0 mi SSW 15.0 mph 25.3 mph N/A   Clear
3:53 PM 55.0 °F - -0.0 °F 11% 29.74 in 10.0 mi SSW 10.4 mph - N/A   Clear
5:53 PM 48.9 °F - 3.0 °F 15% 29.72 in 10.0 mi SSE 4.6 mph - N/A   Clear
6:53 PM 46.9 °F - 3.9 °F 17% 29.73 in 10.0 mi Calm Calm - N/A   Clear
7:53 PM 39.9 °F 35.8 °F 5.0 °F 23% 29.74 in 10.0 mi ENE 5.8 mph - N/A   Clear
8:53 PM 41.0 °F 35.8 °F 7.0 °F 25% 29.71 in 10.0 mi ESE 8.1 mph - N/A   Overcast
9:53 PM 37.9 °F 32.7 °F 8.1 °F 29% 29.70 in 10.0 mi East 6.9 mph - N/A   Mostly Cloudy
10:53 PM 36.0 °F 29.6 °F 10.0 °F 34% 29.68 in 10.0 mi East 8.1 mph - N/A   Mostly Cloudy
11:53 PM 36.0 °F 29.6 °F 10.9 °F 36% 29.66 in 10.0 mi ENE 8.1 mph - N/A   Scattered Clouds